Location: İstanbul
(41.0082°N, 28.9784°E)
Time: 20:30:44
(UTC+03:00)

NOAA 19 - Pass Details

Date: 26 April 2024
Orbit: 839 x 859 km, 99.0° (Epoch: 29 May)

Event Time Altitude Azimuth Distance (km) Brightness Sun altitude
Exits shadow 22:52:13 15° 228° (SW) 2,151 7.2 -27.5°
Maximum altitude 22:55:04 21° 266° (W) 1,799 7.2 -27.8°
Drops below altitude 10° 22:59:09 10° 315° (NW) 2,463 8.5 -28.2°
Sets 23:02:06 0° 331° (NNW) 3,402 9.6 -28.5°
